IRIDIUM 47 DEB, 40249

Orbit data source: Space-Track

IRIDIUM 47 DEB, 40249 is space debris in LEO originally from a launch on Sat, 20 Dec 1997 UTC launched from the Air Force Western Test Range (AFWTR). Debris objects in space refer to the collection of defunct objects orbiting the Earth. Examples of debris include non-operational satellites, rocket bodies, and fragments generated from explosions, collisions, or faulty payload assembly.

Loading next visibility...
Identifier
40249, 1997-082J
Orbit
LEO
Country
Flag of USUS
Related business
Manufacturer
Unknown
Mission
Spacecraft
Bus & Motor
Unknown
Mass
Unknown
Launch date (UTC)
1997-12-20 (28 years ago)
Launch vehicle
Unknown
Launch site
Air Force Western Test Range (AFWTR)
Object type
Payload
Rocket body
Debris
Shape & HBR
Unknown shape, 0.1 m
Radar Cross Section
Small (<0.1 m²)

Expand to show TLE details & history
Last TLE update: 6 hours ago

TLE from 6 hours ago
0 IRIDIUM 47 DEB
1 40249U 97082J   25343.58360277  .00002217  00000-0  66900-3 0  9996
2 40249  86.3907  32.1008 0002399  91.7974 268.3501 14.42094804587593
Epoch: 2025-12-09T14:00Z
TLE epoch observation values (Epoch: 2025-12-09T14:00:23.279Z)
Latitude
-0.00001°
Longitude
103.43761°
Altitude
754.697 km
Speed
7.477 km/s
True Right ascension
02h 08m 24s
True Declination
0° 00' 00"
Sunlit
Object was in full shadow at epoch
Visualization orbit readout
Latitude
Unknown
Longitude
Unknown
Altitude
Unknown
Speed
Unknown
Apparent Right ascension
Unknown
Apparent Declination
Unknown
Sunlit
N/A
Visualization observer readout
Local Sidereal Time
18:44:50
Azimuth
Unknown
Elevation
Unknown
Doppler factor
Unknown
Orbital elements
Apogee altitude
750.249 km
Perigee altitude
746.829 km
Semi-major axis
7,126.676 km
Eccentricity
0.00024
Inclination
86.3907°
RAAN
32.1008°
Arg. of periapsis
91.7974°
True anomaly
268.32262°
Mean anomaly
268.3501°
Eccentric anomaly
268.33636°
Mean motion
3.60755 °/min
Orbital period
99.79 mins
BSTAR
0.000669
Loading maneuver chart data...
Computing Atmospheric mass density...

Documentation

Showing up to 5 results
|